Find Starlink 11295

NORAD ID: 61536 Int'l Des: 2024-184 Owner: SPXS Country: US Constellation: starlink operational
LEOCIRCULAR

Live Position

Loading 3D Globe...

About Starlink 11295

Description loading...

Upcoming Passes

Passes for default location (London). Set your location on the main map for personalized predictions.

Altitude History

Loading altitude history...

Two-Line Element Set

1 61536U 24184E 26126.53445312 -.00002606 00000-0 -16669-4 0 9992
2 61536 53.1587 311.0304 0001676 154.0873 206.0229 15.69690015 89507
Epoch: May 6, 2026 • Age: 11 hours

Current Status

Altitude 358.9 km
Velocity 7.70 km/s
Sub-Earth Point 14.96°N, 110.76°W
Launch Date Oct 15, 2024
Age 1.5 years
Type internet

Technical Details

Classification Payload
Mass 960.00 kg
Dry Mass 910.00 kg
Total Mass 960.00 kg
Length 0.30 m
Diameter 4.10 m
Span 29.00 m
Shape Box + pan
Manufacturer SPXS
Bus Type Starlink V2MD
Phase Status In Orbit
Owner/State SPXS/US

Most Searched